AAL2201 KLAX-KFLG

Flight info

Callsign AAL2201
Flight time N/A
Altitude 25000
Route DOTSS2 CLEEE PKE CHILY FLG
Aircraft A319/M-SDE3FGHIRWY/LB1

Departure

Time 2026-04-21 04:05
Airport Los Angeles International Airport (KLAX)

Arrival

Time N/A
Airport Flagstaff Pulliam Airport (KFLG)
Time Latitude Longitude Altitude Speed Heading
2026-04-21 03:39 33.94026 -118.40485 96 ft 0 kts 83°
2026-04-21 03:53 33.94025 -118.40491 98 ft 4 kts 83°
2026-04-21 03:53 33.94022 -118.40522 96 ft 2 kts 83°
2026-04-21 03:53 33.94021 -118.40546 96 ft 4 kts 135°
2026-04-21 03:53 33.94033 -118.40554 96 ft 1 kts 173°
2026-04-21 03:54 33.94010 -118.40551 98 ft 4 kts 173°
2026-04-21 03:54 33.94000 -118.40549 98 ft 0 kts 173°
2026-04-21 03:57 33.93997 -118.40549 96 ft 2 kts 173°
2026-04-21 03:57 33.93973 -118.40545 96 ft 5 kts 173°
2026-04-21 03:57 33.93927 -118.40538 97 ft 8 kts 173°
2026-04-21 03:58 33.93866 -118.40529 100 ft 9 kts 173°
2026-04-21 03:58 33.93829 -118.40486 103 ft 9 kts 91°
2026-04-21 03:58 33.93839 -118.40380 104 ft 16 kts 84°
2026-04-21 03:58 33.93855 -118.40222 103 ft 21 kts 83°
2026-04-21 03:59 33.93874 -118.40039 105 ft 22 kts 83°
2026-04-21 03:59 33.93892 -118.39848 104 ft 24 kts 84°
2026-04-21 03:59 33.93913 -118.39647 102 ft 25 kts 82°
2026-04-21 04:00 33.93959 -118.39205 101 ft 27 kts 83°
2026-04-21 04:00 33.93982 -118.38977 102 ft 28 kts 83°
2026-04-21 04:00 33.94006 -118.38740 102 ft 29 kts 83°
2026-04-21 04:00 33.94028 -118.38530 102 ft 21 kts 83°
2026-04-21 04:01 33.94046 -118.38350 103 ft 22 kts 83°
2026-04-21 04:01 33.94064 -118.38163 103 ft 23 kts 83°
2026-04-21 04:01 33.94077 -118.38027 103 ft 12 kts 94°
2026-04-21 04:01 33.94057 -118.38002 104 ft 1 kts 161°
2026-04-21 04:02 33.94044 -118.38000 107 ft 5 kts 173°
2026-04-21 04:02 33.93991 -118.38013 110 ft 8 kts 232°
2026-04-21 04:02 33.93981 -118.38064 110 ft 0 kts 263°
2026-04-21 04:04 33.93981 -118.38066 110 ft 1 kts 263°
2026-04-21 04:04 33.93967 -118.38203 108 ft 51 kts 263°
2026-04-21 04:04 33.93890 -118.38940 107 ft 124 kts 263°
2026-04-21 04:05 33.93759 -118.40150 405 ft 153 kts 262°
2026-04-21 04:05 33.93607 -118.41442 1108 ft 159 kts 261°
2026-04-21 04:05 33.93465 -118.42782 1879 ft 162 kts 263°
2026-04-21 04:05 33.93332 -118.44132 2401 ft 171 kts 263°
2026-04-21 04:06 33.93134 -118.45644 2815 ft 195 kts 252°
2026-04-21 04:06 33.92375 -118.47113 3205 ft 222 kts 232°
2026-04-21 04:06 33.91361 -118.48646 3747 ft 247 kts 231°